WORLDVIEW 2 DEB, 41742

Orbit data source: Space-Track

WORLDVIEW 2 DEB, 41742 is space debris in SSO originally from a launch on Thu, 08 Oct 2009 UTC launched from the Air Force Western Test Range (AFWTR). Debris objects in space refer to the collection of defunct objects orbiting the Earth. Examples of debris include non-operational satellites, rocket bodies, and fragments generated from explosions, collisions, or faulty payload assembly.

Loading next visibility...
WORLDVIEW 2 DEB details
Identifier
41742, 2009-055K
Orbit
SSO
Last TLE update8 hours ago
Origin
Flag of USDigitalGlobe (US)
ManufacturerBall
MissionSpacecraft
Bus & MotorUnknown
MassUnknown
Launch date (UTC)
2009-10-08 (15 years ago)
Launch vehicleUnknown
Launch site
Air Force Western Test Range (AFWTR)
Object type
Payload
Rocket body
Debris
Shape & HBRUnknown
Radar Cross SectionSmall (<0.1 m²)

Expand to show TLE details & history

TLE from 8 hours ago
0 WORLDVIEW 2 DEB
1 41742U 09055K   24361.14832084  .00007594  00000-0  18919-2 0  9998
2 41742  98.3711  83.7549 0009119  71.0449 289.1734 14.51907954443831
Epoch: 2024-12-26T03:33Z
Definitive object data (Epoch: 2024-12-26T03:33:34.92Z)
Latitude
Longitude-64.77248°
Altitude720.272 km
Speed7.496 km/s
True Right ascension05h 35m 01s
True Declination0° 00' 00"
Sunlit
Object was in full shadow at TLE epoch
Visualization TLE readout
Latitude-35.57516°
Longitude-58.42666°
Altitude734.626 km
Speed7.486 km/s
Apparent Right ascension02h 55m 34s
Apparent Declination-51° 17' 33"
Sunlit
Object is in full shadow
Visualization observer readout
Local Sidereal Time11:01:16
Azimuth233.887° WSW
Elevation-48.658°
Doppler factor1
Orbital elements
Apogee altitude722.993 km
Perigee altitude710.054 km
Semi-major axis7,094.661 km
Eccentricity0.0009119
Inclination98.3711°
RAAN83.7549°
Arg. of periapsis71.0449°
True anomaly289.07466°
Mean anomaly289.1734°
Eccentric anomaly289.12404°
Mean motion3.632 °/min
BSTAR0.0018919
Orbital period99.12 mins
Loading maneuver chart data...

WORLDVIEW 2 DEB Visibility forecast

Observer location: undefined°, undefined

Span
Click to sort rows by Start time (UTC) header in descending order
Start Az.
Max El. time (UTC)
Max El. Az.
Max El.
End time (UTC)
End Az.
5 mins2024-12-26 17:23:53.033Z58.688° ENE2024-12-26 17:26:53.033Z98.403° ESE14.513°2024-12-26 17:28:53.033Z124.004° SE
7 mins2024-12-26 19:01:53.033Z356.429° N2024-12-26 19:04:53.033Z282.969° WNW39.105°2024-12-26 19:08:53.033Z212.638° SW
4 mins2024-12-27 04:32:53.033Z89.006° E2024-12-27 04:34:53.033Z58.595° ENE16.987°2024-12-27 04:36:53.033Z30.777° NE
7 mins2024-12-27 06:08:53.033Z190.943° SSW2024-12-27 06:11:53.033Z246.433° WSW36.745°2024-12-27 06:15:53.033Z331.434° NNW
|